Weather History for Mazar-I-Sharif, Afghanistan

Change the Weather History Date:

Tuesday, February 5, 2013

  Actual Average Record
Temperature  
Mean Temperature 37 °F -  
Max Temperature 39 °F 53 °F - ()
Min Temperature 35 °F 34 °F - ()
Degree Days  
Heating Degree Days 28    
Moisture  
Dew Point 36 °F    
Average Humidity 94    
Maximum Humidity 100    
Minimum Humidity 81    
Precipitation  
Precipitation 0.00 in 0.05 in - ()
Sea Level Pressure  
Sea Level Pressure 30.39 in    
Wind  
Wind Speed 5 mph ()    
Max Wind Speed 9 mph    
Max Gust Speed -    
Visibility 3.5 miles    
Events Rain    
T = Trace of Precipitation, MM = Missing Value Source: Averaged Metar Reports

Daily Weather History Graph

Daily Weather History Graph

Search for Another Location

Airport:

Trip Planner

Search our weather history database for the weather conditions in past years. The results will help you decide how hot, cold, wet, or windy it might be!

Date:

Astronomy

Feb. 05, 2013 Rise Set
Actual Time 6:59 AM AFT 5:30 PM AFT
Civil Twilight 6:32 AM AFT 5:57 PM AFT
Nautical Twilight 6:02 AM AFT 6:28 PM AFT
Astronomical Twilight 5:31 AM AFT 6:59 PM AFT
Moon 2:10 AM AFT (2/5) 12:26 PM AFT (2/5)
Length of Visible Light 11h 25m
Length of Day
10h 31m
Waning Crescent, 31% of the Moon is Illuminated
Feb 5
Waning Crescent
Feb 10
New
Feb 18
First Quarter
Feb 26
Full
Mar 5
Last Quarter

Hourly Weather History & Observations

Time (AFT) Temp. Windchill Dew Point Humidity Pressure Visibility Wind Dir Wind Speed Gust Speed Precip Events Conditions
12:20 AM 37.4 °F 31.4 °F 35.6 °F 93% 30.39 in 3.1 mi West 8.1 mph - N/A Rain Light Rain
12:57 AM 37.4 °F 31.4 °F 35.6 °F 93% 30.39 in 3.1 mi West 8.1 mph - N/A Rain Light Rain
1:20 AM 37.4 °F 31.4 °F 37.4 °F 100% 30.39 in 3.1 mi West 8.1 mph - N/A Rain Light Rain
2:03 AM 37.4 °F 30.8 °F 37.4 °F 100% 30.39 in 3.7 mi West 9.2 mph - N/A Rain Light Rain
2:20 AM 37.4 °F 30.8 °F 37.4 °F 100% 30.39 in 3.7 mi West 9.2 mph - N/A Rain Light Rain
3:20 AM 35.6 °F 29.2 °F 35.6 °F 100% 30.39 in 3.7 mi West 8.1 mph - N/A   Light Drizzle
4:20 AM 35.6 °F 30.7 °F 35.6 °F 100% 30.36 in 3.7 mi WNW 5.8 mph - N/A Rain Light Rain
5:20 AM 35.6 °F 31.7 °F 35.6 °F 100% 30.39 in 3.7 mi WNW 4.6 mph - N/A Rain Light Rain
7:20 AM 35.6 °F 32.8 °F 35.6 °F 100% 30.39 in 1.9 mi West 3.5 mph - N/A Rain Light Rain
8:20 AM 35.6 °F - 35.6 °F 100% 30.42 in 1.6 mi West 2.3 mph - N/A Rain Light Rain
9:20 AM 35.6 °F - 35.6 °F 100% 30.42 in 1.9 mi West 2.3 mph - N/A Rain Light Rain
9:50 AM 35.6 °F - 35.6 °F 100% 30.42 in 2.5 mi Calm Calm - N/A   Mostly Cloudy
10:20 AM 37.4 °F - 35.6 °F 93% 30.42 in 3.1 mi Calm Calm - N/A Rain Light Rain
11:20 AM 37.4 °F 34.9 °F 35.6 °F 93% 30.39 in 3.1 mi West 3.5 mph - N/A   Mostly Cloudy
12:20 PM 37.4 °F 34.9 °F 35.6 °F 93% 30.36 in 3.1 mi WNW 3.5 mph - N/A   Mostly Cloudy
1:20 PM 37.4 °F - 35.6 °F 93% 30.36 in 3.7 mi West 2.3 mph - N/A   Mostly Cloudy
2:20 PM 39.2 °F - 35.6 °F 87% 30.36 in 3.7 mi Variable 1.2 mph - N/A   Mostly Cloudy
3:20 PM 39.2 °F - 35.6 °F 87% 30.36 in 3.7 mi NW 2.3 mph - N/A   Mostly Cloudy
4:20 PM 39.2 °F 37.0 °F 35.6 °F 87% 30.36 in 3.7 mi NW 3.5 mph - N/A   Mostly Cloudy
5:20 PM 39.2 °F - 33.8 °F 81% 30.36 in 3.7 mi NW 1.2 mph - N/A   Mostly Cloudy
6:20 PM 39.2 °F 37.0 °F 35.6 °F 87% 30.39 in 3.7 mi ENE 3.5 mph - N/A   Mostly Cloudy
7:20 PM 39.2 °F 37.0 °F 35.6 °F 87% 30.39 in 4.3 mi ENE 3.5 mph - N/A   Mostly Cloudy
8:20 PM 39.2 °F 34.2 °F 37.4 °F 93% 30.39 in 4.3 mi NE 6.9 mph - N/A   Mostly Cloudy
9:20 PM 39.2 °F 35.0 °F 37.4 °F 93% 30.42 in 4.3 mi East 5.8 mph - N/A   Mostly Cloudy
10:20 PM 39.2 °F 35.0 °F 35.6 °F 87% 30.39 in 5.0 mi East 5.8 mph - N/A   Mostly Cloudy
11:20 PM 39.2 °F 34.2 °F 37.4 °F 93% 30.39 in 5.0 mi ENE 6.9 mph - N/A   Mostly Cloudy